Regional Weather Roundup
Issued by NWS Charleston, SC

Current Version | Previous Version | Graphics & Text | Print | Product List | Glossary On
Versions: 1 2 3 4 5 6 7 8 9 10 11 12 13 14 15 16 17 18 19 20 21 22 23 24 25 26 27 28 29 30 31 32 33 34 35 36 37 38 39 40 41 42 43 44 45 46 47 48 49 50
000
ASUS42 KCHS 271426
RWRCHS

REGIONAL WEATHER ROUNDUP
NATIONAL WEATHER SERVICE CHARLESTON SC
1000 AM EDT FRI MAR 27 2015

NOTE: "FAIR" INDICATES FEW OR NO CLOUDS BELOW 12,000 FEET WITH NO
SIGNIFICANT WEATHER AND/OR OBSTRUCTIONS TO VISIBILITY.

NOT ALL STATIONS ARE QUALITY CONTROLLED BY THE NATIONAL
WEATHER SERVICE. USE DATA WITH CAUTION...ESPECIALLY
DEWPOINT OBSERVATIONS.

SCZ027-030-031-034>040-042>050-271500-
...SOUTHEAST SOUTH CAROLINA...

CITY           SKY/WX    TMP DP  RH WIND       PRES   REMARKS
N CHARLESTON   PTSUNNY   68  61  77 SW15      29.73S
WATERFRONT PRK NOT AVBL
MOUNT PLEASANT PTSUNNY   68  63  83 SW10      29.73S
PINOPOLIS        N/A     68  63  83 SW13      29.63R
MONCKS CORNER  CLOUDY    68  61  77 W9        29.70F
SUMMERVILLE    CLOUDY    68  63  83 SW12      29.72F
BEAUFORT MCAS  PTSUNNY   66  61  84 SW16      29.74F
BEAUFORT ARPT  CLOUDY    68  63  83 SW10G17   29.75R
HILTON HEAD IS PTSUNNY   66  63  88 SW10      29.76S
WALTERBORO     PTSUNNY   66  61  82 SW15      29.72F
ALLENDALE      CLOUDY    68  61  77 VRB6G14   29.70F

...SOUTHERN MIDLANDS AND PEE DEE...

CITY           SKY/WX    TMP DP  RH WIND       PRES   REMARKS
GEORGETOWN     NOT AVBL
KINGSTREE      NOT AVBL
ORANGEBURG     CLOUDY    68  60  75 SW9       29.69F
BARNWELL       CLOUDY    70  63  78 SW15      29.70F
AIKEN          PTSUNNY   63  59  88 W9        29.73S
MANNING        CLOUDY    64  59  82 SW5       29.70R
COLUMBIA       LGT RAIN  64  63  96 W8        29.68S
SUMTER         CLOUDY    66  61  82 W9        29.66F
FLORENCE       CLOUDY    67  59  75 SW12      29.67R
MYRTLE BEACH   PTSUNNY   68  61  77 W12       29.71S
N MYRTLE BEACH PTSUNNY   67  61  81 SW10      29.68S

$$

GAZ063-065-086>088-099>101-113>116-118-119-134>141-150-271500-
...SOUTHEAST GEORGIA...

CITY           SKY/WX    TMP DP  RH WIND       PRES   REMARKS
SAVANNAH ARPT  CLOUDY    68  60  75 SW10      29.76S
HUNTER AAF     PTSUNNY   70  64  83 SW16      29.74S
FORT STEWART   PTSUNNY   67  61  82 SW8       29.74F
STATESBORO     CLOUDY    66  66 100 SW12      29.74R
SYLVANIA       CLOUDY    66  63  89 SW7       29.74R
CLAXTON        CLOUDY    66  63  88 SW7       29.76R

...CSRA...CENTRAL AND FAR SOUTHEAST GEORGIA...

CITY           SKY/WX    TMP DP  RH WIND       PRES   REMARKS
THOMSON        CLOUDY    63  60  90 W8        29.76R
AUGUSTA-BUSH   CLOUDY    68  58  70 W9        29.69S
AUGUSTA-DANIEL MOSUNNY   65  59  81 VRB5      29.70F
SWAINSBORO     CLOUDY    68  59  73 NW13      29.73F
VIDALIA        CLOUDY    66  63  88 SW9       29.74F
EASTMAN        CLOUDY    66  62  88 NW7       29.77S
HAZLEHURST     CLOUDY    68  64  88 SW5       29.75S
ALMA           CLOUDY    66  62  87 SW8       29.76F
WAYCROSS       RAIN      69  68  97 SW8       29.78F
JESUP          CLOUDY    70  66  88 SW5       29.78F
BAXLEY         CLOUDY    68  63  83 SW5       29.76F
BRUNSWICK      CLOUDY    70  63  78 W9G16     29.80S
SAINT SIMONS   PTSUNNY   68  63  84 SW12      29.80S

$$

SCZ027-028-034-036>038-045-046-048>050-GAZ119-141-271500-
...LAKE AND SUPPLEMENTAL COASTAL OBSERVATIONS...

STATION/POSITION TIME  TEMP    WIND        PRES    WAVE   SWELL
                       AIR SEA DIR/SP/G            HT/PER HT/PER/DIR
                 (UTC) (F)     (DEG/KT/KT) (MB)    (FT/S) (FT/S/D)
UPR LAKE MARION  NOT AVBL
WINYAH BAY       1345   67     240/ 10     1005.0S
LAKE MURRAY      1400   60     330/  5/ 10 1005.4R
ACE BASIN NERRS  NOT AVBL
FORT PULASKI     1400   67 62  230/  9/ 15 1008.3F
SAPELO ISLAND    1400   67     240/ 14     1008.0F

$$

ANZ835-935-AMZ111-154-330-350-352-354-370-450-454-472-271500-
...C-MAN AND BUOY OBSERVATIONS...

STATION/POSITION TIME  TEMP    WIND        PRES    WAVE   SWELL
                       AIR SEA DIR/SP/G            HT/PER HT/PER/DIR
                 (UTC) (F)     (DEG/KT/KT) (MB)    (FT/S) (FT/S/D)
BUOY 41004       1350   67 70  250/ 17/ 21 1006.7R   6/ 6   3/ 8
BUOY 41008       1350   62 60  220/  6/  6 1008.7F   3/ 8   2/ 90/ 8
FOLLY BEACH CMAN 1400   62     220/  9/ 11 1006.9S
CAPERS NEARSHORE 1300   62     240/  8/ 10   N/A
FRIPP NEARSHORE  1300   62     230/ 12/ 14 1007.5R


STATION/POSITION TIME  TEMP    WIND        PRES    WAVE   SWELL
                       AIR SEA DIR/SP/G            HT/PER HT/PER/DIR
                 (UTC) (F)     (DEG/KT/KT) (MB)    (FT/S) (FT/S/D)
5E ST. MARYS GA  1321      62                N/A     2/ 8
FRYING PAN BUOY  1350   67 65  230/ 17/ 19 1005.9R   6/ 8   3/120/ 8
BUOY 41025       NOT AVBL
CAPE LOOKOUT NC  1400   60     190/  6/  7 1004.4F
BUOY 41002       1350   71 69  200/ 19/ 23 1008.9F   9/ 8   2/ 40/13
BUOY 41010       1320   76 76  230/ 14/ 17 1011.2S
ST AUGUSTINE FL  1400   68 63  230/ 11/ 15 1011.3F


$$



USA.gov is the U.S. government's official web portal to all federal, state and local government web resources and services.